User: anonymous   Login
Location: Marne
(34.0056°N, 117.9064°W)
Time: 20:51:41
(UTC+00:00)
Language:

Cosmos 1825 Rocket - Orbit

View from above orbital plane
View from above orbital plane
View from above satellite
View from above satellite

Ground track
Ground track

The orbit data is extracted from the following two-line orbital elements,

1 17567U 87024B   20093.15283771 +.00000059 +00000-0 +42489-5 0  9991
2 17567 082.5287 324.3293 0018207 217.7394 142.2545 14.83757650766623
Epoch (UTC): 02 April 2020 03:40:05
Eccentricity: 0.0018207
inclination: 82.5287°
perigee height: 605 km
apogee height: 630 km
right ascension of ascending node: 324.3293°
argument of perigee: 217.7394°
revolutions per day: 14.83757650
mean anomaly at epoch: 142.2545°
orbit number at epoch: 76662

The dashed part of the orbit path shows where the satellite is in the earth's shadow,  

DLR